RPC1767 RPUK-RPUI

Flight info

Callsign RPC1767
Flight time N/A
Altitude 5500
Route RPUK RPUI
Aircraft C172/L-S/C

Departure

Time 2026-05-01 13:52
Airport Calapan National Airport (RPUK)

Arrival

Time N/A
Airport Iba Airport (RPUI)
Time Latitude Longitude Altitude Speed Heading
2026-05-01 13:52 13.46182 121.12141 3564 ft 111 kts 289°
2026-05-01 13:52 13.46413 121.11380 3705 ft 111 kts 289°
2026-05-01 13:52 13.46629 121.10629 3845 ft 110 kts 289°
2026-05-01 13:52 13.46846 121.09875 3983 ft 109 kts 289°
2026-05-01 13:53 13.47063 121.09136 4126 ft 106 kts 289°
2026-05-01 13:53 13.47466 121.07708 4405 ft 104 kts 287°
2026-05-01 13:53 13.47657 121.06980 4549 ft 105 kts 287°
2026-05-01 13:54 13.47851 121.06268 4696 ft 105 kts 287°
2026-05-01 13:54 13.48050 121.05544 4842 ft 105 kts 291°
2026-05-01 13:54 13.48302 121.04835 4986 ft 106 kts 293°
2026-05-01 13:54 13.48554 121.04120 5128 ft 106 kts 292°
2026-05-01 13:55 13.48814 121.03416 5274 ft 104 kts 293°
2026-05-01 13:55 13.49066 121.02732 5409 ft 103 kts 292°
2026-05-01 13:55 13.49319 121.02032 5497 ft 109 kts 293°
2026-05-01 13:55 13.49591 121.01274 5512 ft 115 kts 293°
2026-05-01 13:56 13.49874 121.00486 5506 ft 119 kts 293°
2026-05-01 13:56 13.50166 120.99679 5506 ft 121 kts 293°
2026-05-01 13:56 13.50468 120.98870 5506 ft 124 kts 293°
2026-05-01 13:56 13.50681 120.98305 5506 ft 126 kts 293°
2026-05-01 13:57 13.51105 120.97175 5510 ft 128 kts 294°
2026-05-01 13:57 13.51318 120.96601 5503 ft 130 kts 293°
2026-05-01 13:57 13.51737 120.95459 5503 ft 128 kts 293°
2026-05-01 13:57 13.52048 120.94608 5499 ft 127 kts 294°
2026-05-01 13:58 13.52361 120.93760 5505 ft 127 kts 293°
2026-05-01 13:58 13.52678 120.92912 5499 ft 127 kts 293°
2026-05-01 13:58 13.52997 120.92061 5500 ft 127 kts 293°
2026-05-01 13:58 13.53317 120.91212 5499 ft 127 kts 293°
2026-05-01 13:59 13.53643 120.90364 5503 ft 128 kts 294°
2026-05-01 13:59 13.53973 120.89529 5498 ft 127 kts 294°
2026-05-01 13:59 13.54302 120.88684 5498 ft 127 kts 294°
2026-05-01 13:59 13.54631 120.87838 5496 ft 126 kts 294°
2026-05-01 14:00 13.54958 120.87012 5498 ft 126 kts 294°
2026-05-01 14:00 13.55297 120.86170 5502 ft 127 kts 294°
2026-05-01 14:00 13.55635 120.85330 5498 ft 128 kts 295°
2026-05-01 14:00 13.55965 120.84483 5498 ft 127 kts 294°
2026-05-01 14:01 13.56291 120.83644 5496 ft 126 kts 294°
2026-05-01 14:01 13.56617 120.82808 5496 ft 126 kts 294°
2026-05-01 14:01 13.56945 120.81975 5488 ft 126 kts 294°
2026-05-01 14:01 13.57274 120.81137 5491 ft 126 kts 295°
2026-05-01 14:02 13.57599 120.80299 5494 ft 126 kts 294°
2026-05-01 14:02 13.57923 120.79473 5490 ft 125 kts 294°
2026-05-01 14:02 13.58247 120.78640 5493 ft 125 kts 294°
2026-05-01 14:02 13.58598 120.77825 5487 ft 124 kts 307°
2026-05-01 14:03 13.59102 120.77112 5484 ft 123 kts 310°
2026-05-01 14:03 13.59601 120.76401 5490 ft 123 kts 310°
2026-05-01 14:03 13.60092 120.75697 5486 ft 122 kts 310°
2026-05-01 14:03 13.60595 120.74985 5486 ft 122 kts 310°
2026-05-01 14:04 13.61095 120.74277 5479 ft 122 kts 310°
2026-05-01 14:04 13.61586 120.73571 5483 ft 122 kts 310°
2026-05-01 14:04 13.62085 120.72856 5481 ft 123 kts 310°
2026-05-01 14:04 13.62418 120.72381 5477 ft 123 kts 311°
2026-05-01 14:05 13.63080 120.71430 5486 ft 123 kts 310°
2026-05-01 14:05 13.63583 120.70711 5484 ft 123 kts 310°
2026-05-01 14:05 13.64087 120.70002 5483 ft 122 kts 310°
2026-05-01 14:05 13.64588 120.69295 5486 ft 122 kts 310°
2026-05-01 14:06 13.65087 120.68591 5478 ft 122 kts 310°
2026-05-01 14:06 13.65581 120.67895 5482 ft 121 kts 310°
2026-05-01 14:06 13.65908 120.67428 5481 ft 121 kts 311°
2026-05-01 14:08 13.68794 120.63425 5483 ft 120 kts 317°
2026-05-01 14:08 13.69543 120.62579 5485 ft 120 kts 317°
2026-05-01 14:08 13.70105 120.61938 5477 ft 120 kts 317°
2026-05-01 14:08 13.70663 120.61299 5482 ft 120 kts 317°
2026-05-01 14:09 13.71218 120.60670 5481 ft 120 kts 317°
2026-05-01 14:09 13.71783 120.60035 5483 ft 120 kts 317°
2026-05-01 14:09 13.72349 120.59398 5485 ft 121 kts 317°
2026-05-01 14:09 13.72941 120.58790 5484 ft 120 kts 324°
2026-05-01 14:10 13.73579 120.58240 5483 ft 119 kts 327°
2026-05-01 14:10 13.74215 120.57716 5470 ft 118 kts 327°
2026-05-01 14:10 13.74854 120.57187 5478 ft 118 kts 327°
2026-05-01 14:10 13.75487 120.56653 5473 ft 117 kts 326°
2026-05-01 14:11 13.76117 120.56116 5473 ft 117 kts 326°
2026-05-01 14:11 13.77366 120.55050 5471 ft 117 kts 326°
2026-05-01 14:11 13.77991 120.54515 5471 ft 116 kts 326°
2026-05-01 14:12 13.78607 120.53989 5466 ft 116 kts 326°
2026-05-01 14:12 13.79233 120.53458 5470 ft 117 kts 326°
2026-05-01 14:12 13.79864 120.52925 5467 ft 117 kts 326°
2026-05-01 14:12 13.80494 120.52393 5471 ft 117 kts 326°
2026-05-01 14:13 13.81123 120.51861 5468 ft 117 kts 326°
2026-05-01 14:13 13.81747 120.51336 5468 ft 117 kts 326°
2026-05-01 14:13 13.82380 120.50803 5465 ft 117 kts 326°
2026-05-01 14:13 13.83011 120.50268 5471 ft 118 kts 326°
2026-05-01 14:14 13.83641 120.49730 5472 ft 119 kts 326°
2026-05-01 14:14 13.84281 120.49183 5472 ft 120 kts 326°
2026-05-01 14:14 13.84904 120.48601 5472 ft 121 kts 321°
2026-05-01 14:14 13.85305 120.48199 5475 ft 121 kts 321°
2026-05-01 14:15 13.86102 120.47392 5479 ft 121 kts 321°
2026-05-01 14:15 13.86704 120.46787 5474 ft 120 kts 321°
2026-05-01 14:15 13.87303 120.46188 5473 ft 119 kts 321°
2026-05-01 14:15 13.87901 120.45588 5473 ft 120 kts 321°
2026-05-01 14:16 13.88489 120.44996 5469 ft 120 kts 321°
2026-05-01 14:16 13.88894 120.44589 5470 ft 120 kts 321°
2026-05-01 14:16 13.89690 120.43794 5470 ft 120 kts 321°
2026-05-01 14:16 13.90289 120.43193 5471 ft 121 kts 321°
2026-05-01 14:17 13.90891 120.42585 5468 ft 121 kts 321°